KF7IOR Weather Reports


time (UTC)temp
F
wind
direction
speed
knots
gust
knots
rain 1hr
in
rain 24hr
in
rain mn
in
humidity
%
barometer
mb
20260503213046 90 278 1.7 5.2 0.00 0.00 0.00 29 1008.3
20260503212535 90 352 1.7 5.2 0.00 0.00 0.00 29 1008.3
20260503212034 90 5 1.7 4.3 0.00 0.00 0.00 31 1008.3
20260503211543 89 294 2.6 5.2 0.00 0.00 0.00 31 1008.5
20260503211034 89 287 2.6 6.1 0.00 0.00 0.00 32 1008.6
20260503210535 89 255 0.9 6.1 0.00 0.00 0.00 35 1008.6
20260503210039 89 335 1.7 7.0 0.00 0.00 0.00 31 1008.8
20260503205534 88 326 1.7 7.0 0.00 0.00 0.00 32 1008.8
20260503205036 88 40 1.7 6.1 0.00 0.00 0.00 32 1008.8
20260503204547 88 269 0.9 6.1 0.00 0.00 0.00 34 1009.0
20260503204034 86 304 1.7 7.8 0.00 0.00 0.00 36 1009.0
20260503203534 86 5 3.5 7.8 0.00 0.00 0.00 34 1009.2
20260503203049 86 350 2.6 7.8 0.00 0.00 0.00 35 1009.2
20260503202535 86 11 1.7 6.1 0.00 0.00 0.00 35 1009.3
20260503202036 86 352 2.6 5.2 0.00 0.00 0.00 36 1009.4
20260503201552 85 341 1.7 8.7 0.00 0.00 0.00 39 1009.5
20260503201036 84 150 1.7 8.7 0.00 0.00 0.00 40 1009.5
20260503200534 83 5 2.6 8.7 0.00 0.00 0.00 39 1009.6
20260503200047 84 9 2.6 5.2 0.00 0.00 0.00 40 1009.6
20260503195535 84 290 2.6 7.0 0.00 0.00 0.00 41 1009.6
20260503195034 84 350 2.6 7.0 0.00 0.00 0.00 43 1009.6
20260503194557 82 22 1.7 5.2 0.00 0.00 0.00 42 1009.7
20260503194034 82 347 2.6 5.2 0.00 0.00 0.00 42 1009.8
20260503193534 82 346 0.9 6.1 0.00 0.00 0.00 43 1009.9
20260503193040 81 252 2.6 6.1 0.00 0.00 0.00 43 1010.0
20260503192534 82 335 0.9 4.3 0.00 0.00 0.00 45 1010.1
20260503192034 81 0 0.9 6.1 0.00 0.00 0.00 46 1010.1
20260503191538 79 277 0.9 7.0 0.00 0.00 0.00 45 1010.1
20260503191035 78 340 2.6 7.0 0.00 0.00 0.00 46 1010.2
20260503190538 79 333 3.5 6.1 0.00 0.00 0.00 48 1010.3
20260503190042 78 352 2.6 7.0 0.00 0.00 0.00 46 1010.2
20260503185534 78 36 1.7 7.0 0.00 0.00 0.00 48 1010.4
20260503185034 78 9 1.7 7.0 0.00 0.00 0.00 47 1010.6
20260503184544 78 233 1.7 4.3 0.00 0.00 0.00 47 1010.6
20260503184035 78 341 0.9 3.5 0.00 0.00 0.00 48 1010.6
20260503183535 77 264 0.9 4.3 0.00 0.00 0.00 49 1010.7
20260503183053 77 321 0.9 4.3 0.00 0.00 0.00 50 1010.8
20260503182534 75 352 1.7 4.3 0.00 0.00 0.00 51 1010.8
20260503182034 75 338 1.7 4.3 0.00 0.00 0.00 52 1010.8
20260503181556 75 19 1.7 3.5 0.00 0.00 0.00 52 1011.0
20260503181038 75 249 1.7 3.5 0.00 0.00 0.00 53 1010.9
20260503180536 74 318 1.7 3.5 0.00 0.00 0.00 53 1011.0
20260503180049 74 320 1.7 3.5 0.00 0.00 0.00 54 1011.0
20260503175533 74 305 0.9 4.3 0.00 0.00 0.00 54 1011.0
20260503175034 72 26 1.7 3.5 0.00 0.00 0.00 56 1011.1
20260503174553 73 308 1.7 3.5 0.00 0.00 0.00 57 1011.2
20260503174034 73 340 0.9 3.5 0.00 0.00 0.00 58 1011.2
20260503173535 72 66 0.9 3.5 0.00 0.00 0.00 57 1011.3
20260503173047 71 19 0.9 4.3 0.00 0.00 0.00 59 1011.3
20260503172536 71 319 1.7 5.2 0.00 0.00 0.00 60 1011.4
20260503172034 70 360 1.7 5.2 0.00 0.00 0.00 62 1011.3
20260503171544 70 10 0.9 5.2 0.00 0.00 0.00 64 1011.4
20260503171113 69 43 1.7 4.3 0.00 0.00 0.00 63 1011.5
20260503170534 69 31 1.7 3.5 0.00 0.00 0.00 63 1011.4
20260503150534 60 352 0.0 1.7 0.00 0.00 0.00 81 1011.9
20260503131034 50 0 0.0 0.0 0.00 0.00 0.00 91 1011.6
20260503130535 50 0 0.0 0.0 0.00 0.00 0.00 91 1011.5
20260503110535 52 0 0.0 0.0 0.00 0.00 0.00 90 1011.8
20260503081548 56 0 0.0 1.7 0.00 0.00 0.00 87 1012.1
20260503081037 56 0 0.0 1.7 0.00 0.00 0.00 87 1012.0
20260503080538 56 0 0.0 0.0 0.00 0.00 0.00 86 1012.0
20260503072535 57 0 0.0 0.0 0.00 0.00 0.00 85 1012.1
20260503072035 57 0 0.0 1.7 0.00 0.00 0.00 85 1012.2
20260503071547 57 0 0.0 1.7 0.00 0.00 0.00 85 1012.2
20260503071034 57 0 0.0 1.7 0.00 0.00 0.00 84 1012.2
20260503070537 57 255 0.0 1.7 0.00 0.00 0.00 84 1012.2
20260503055034 61 0 0.0 1.7 0.00 0.00 0.00 78 1011.9
20260503054545 61 0 0.0 1.7 0.00 0.00 0.00 78 1011.8
20260503054034 61 321 0.0 1.7 0.00 0.00 0.00 77 1011.8
20260503053534 62 352 0.0 1.7 0.00 0.00 0.00 77 1011.9
20260503053045 61 0 0.0 1.7 0.00 0.00 0.00 77 1012.0
20260503052534 61 352 0.9 1.7 0.00 0.00 0.00 77 1011.8
20260503052035 61 352 0.0 1.7 0.00 0.00 0.00 78 1011.8
20260503051550 62 0 0.0 1.7 0.00 0.00 0.00 77 1012.1
20260503051034 62 352 0.9 1.7 0.00 0.00 0.00 77 1012.0
20260503050535 62 16 0.0 0.9 0.00 0.00 0.00 76 1012.2
20260503050047 62 105 0.0 0.9 0.00 0.00 0.00 76 1012.4
20260503045535 62 0 0.0 0.0 0.00 0.00 0.00 75 1012.3
20260503045034 63 0 0.0 1.7 0.00 0.00 0.00 74 1012.4
20260503044600 63 0 0.0 1.7 0.00 0.00 0.00 74 1012.4
20260503044034 63 0 0.0 1.7 0.00 0.00 0.00 75 1012.4
20260503043534 63 0 0.9 0.9 0.00 0.00 0.00 74 1012.3
20260503043048 63 0 0.0 0.0 0.00 0.00 0.00 74 1012.2
20260503042537 63 0 0.0 0.0 0.00 0.00 0.00 73 1012.1
20260503042035 63 0 0.0 1.7 0.00 0.00 0.00 73 1012.2
20260503041604 64 0 0.0 1.7 0.00 0.00 0.00 73 1012.1
20260503041035 64 0 0.0 1.7 0.00 0.00 0.00 73 1012.1
20260503040535 64 0 0.0 1.7 0.00 0.00 0.00 72 1012.1
20260503040051 64 0 0.0 1.7 0.00 0.00 0.00 71 1012.2
20260503035535 64 0 0.0 1.7 0.00 0.00 0.00 71 1012.1
20260503035038 64 0 0.0 1.7 0.00 0.00 0.00 71 1012.1
20260503034539 64 119 0.0 1.7 0.00 0.00 0.00 70 1012.0
20260503034035 65 0 0.0 1.7 0.00 0.00 0.00 69 1011.9
20260503033536 65 0 0.0 1.7 0.00 0.00 0.00 68 1011.9
20260503033042 65 0 0.0 1.7 0.00 0.00 0.00 68 1011.9
20260503032535 65 127 0.9 2.6 0.00 0.00 0.00 68 1011.8
20260503032035 66 0 0.0 3.5 0.00 0.00 0.00 68 1011.6
20260503031542 66 138 1.7 3.5 0.00 0.00 0.00 67 1011.7
20260503031035 66 178 0.9 6.1 0.00 0.00 0.00 67 1011.6
20260503030535 66 206 0.0 6.1 0.00 0.00 0.00 67 1011.6
20260503030045 66 244 0.9 7.0 0.00 0.00 0.00 67 1011.6
20260503025534 66 0 1.7 7.0 0.00 0.00 0.00 67 1011.7
20260503025034 67 77 2.6 7.8 0.00 0.00 0.00 66 1011.7
20260503024545 67 154 1.7 7.8 0.00 0.00 0.00 66 1011.6
20260503024035 67 232 0.9 8.7 0.00 0.00 0.00 65 1011.7
20260503023535 68 109 1.7 9.6 0.00 0.00 0.00 64 1011.7
20260503023047 68 199 2.6 10.4 0.00 0.00 0.00 63 1011.6
20260503022535 69 207 4.3 10.4 0.00 0.00 0.00 62 1011.7
20260503022035 70 239 0.9 8.7 0.00 0.00 0.00 61 1011.5
20260503021545 71 131 4.3 7.8 0.00 0.00 0.00 59 1011.6
20260503021035 71 191 3.5 9.6 0.00 0.00 0.00 59 1011.5
20260503020536 71 145 3.5 9.6 0.00 0.00 0.00 58 1011.2
20260503020046 72 148 2.6 6.1 0.00 0.00 0.00 56 1011.0
20260503015535 74 150 1.7 5.2 0.00 0.00 0.00 54 1010.8
20260503015034 74 257 0.0 1.7 0.00 0.00 0.00 54 1010.7
20260503014550 74 239 0.0 1.7 0.00 0.00 0.00 54 1010.6
20260503014035 74 223 0.0 1.7 0.00 0.00 0.00 54 1010.6
20260503013535 74 234 0.0 1.7 0.00 0.00 0.00 52 1010.7
20260503013045 74 223 0.9 2.6 0.00 0.00 0.00 53 1010.6
20260503012536 74 211 0.9 3.5 0.00 0.00 0.00 54 1010.6
20260503012037 74 279 0.9 3.5 0.00 0.00 0.00 53 1010.6
20260503011548 74 259 0.9 1.7 0.00 0.00 0.00 52 1010.6
20260503011037 75 325 0.9 1.7 0.00 0.00 0.00 54 1010.6
20260503010534 74 244 0.0 3.5 0.00 0.00 0.00 54 1010.7
20260503010045 74 248 0.9 3.5 0.00 0.00 0.00 51 1010.6
20260503005535 75 298 0.9 3.5 0.00 0.00 0.00 51 1010.6
20260503005036 76 345 1.7 4.3 0.00 0.00 0.00 51 1010.6
20260503004604 76 295 0.9 7.0 0.00 0.00 0.00 50 1010.7
20260503004035 75 28 1.7 7.0 0.00 0.00 0.00 51 1010.7
20260503003535 76 352 2.6 7.0 0.00 0.00 0.00 51 1010.7
20260503003055 76 5 1.7 7.0 0.00 0.00 0.00 50 1010.7
20260503002539 75 329 2.6 7.0 0.00 0.00 0.00 51 1010.7
20260503002035 76 352 0.9 3.5 0.00 0.00 0.00 51 1010.7
20260503001553 75 5 0.9 4.3 0.00 0.00 0.00 51 1010.8
20260503001035 74 17 1.7 6.1 0.00 0.00 0.00 52 1010.8
20260503000535 74 223 1.7 7.0 0.00 0.00 0.00 53 1010.8
20260503000046 73 294 2.6 7.0 0.00 0.00 0.00 54 1010.9
20260502235535 73 309 1.7 4.3 0.00 0.00 0.00 53 1010.9
20260502235035 73 239 1.7 4.3 0.00 0.00 0.00 54 1011.0
20260502234551 73 276 0.9 6.1 0.00 0.00 0.00 55 1011.0
20260502234035 73 344 1.7 6.1 0.00 0.00 0.00 54 1011.1
20260502233536 73 9 0.9 5.2 0.00 0.00 0.00 55 1011.2
20260502233041 73 360 1.7 5.2 0.00 0.00 0.00 54 1011.3
20260502232535 73 334 1.7 5.2 0.00 0.00 0.00 53 1011.2
20260502232035 72 51 0.9 4.3 0.00 0.00 0.00 56 1011.4
20260502231542 72 39 0.9 7.0 0.00 0.00 0.00 56 1011.3
20260502231035 71 27 1.7 7.0 0.00 0.00 0.00 56 1011.4
20260502230535 71 256 2.6 7.0 0.00 0.00 0.00 55 1011.4
20260502230039 72 300 0.9 2.6 0.00 0.00 0.00 53 1011.5
20260502225534 72 21 0.9 4.3 0.00 0.00 0.00 57 1011.6
20260502225035 70 291 1.7 4.3 0.00 0.00 0.00 57 1011.8
20260502224537 70 30 1.7 4.3 0.00 0.00 0.00 56 1011.9
20260502224034 71 10 0.9 3.5 0.00 0.00 0.00 55 1012.0
20260502223535 71 46 1.7 4.3 0.00 0.00 0.00 55 1012.1
20260502223047 70 15 0.9 4.3 0.00 0.00 0.00 57 1012.2
20260502222535 70 13 0.9 5.2 0.00 0.00 0.00 57 1012.2
20260502222034 69 176 0.9 5.2 0.00 0.00 0.00 58 1012.3
20260502221542 70 61 1.7 3.5 0.00 0.00 0.00 57 1012.3
20260502221034 69 44 0.9 6.1 0.00 0.00 0.00 61 1012.5
20260502220534 69 22 1.7 6.1 0.00 0.00 0.00 58 1012.6
20260502220114 68 78 0.9 4.3 0.00 0.00 0.00 58 1012.7
20260502215536 69 352 1.7 4.3 0.00 0.00 0.00 58 1012.8
20260502215034 69 348 1.7 4.3 0.00 0.00 0.00 58 1012.8
20260502214539 69 51 1.7 4.3 0.00 0.00 0.00 59 1012.8
20260502214035 70 329 0.9 5.2 0.00 0.00 0.00 59 1012.9
20260502213535 68 352 2.6 5.2 0.00 0.00 0.00 57 1013.0